McGuire AFB, NJ

8:27 AM EDT on May 26, 2017 (GMT -0400)
McGuire Air Force Base

Weather History for KWRI - October, 2012

Change the Weather History Date:

Sunday, October 14, 2012

  Actual Average Record
Temperature  
Mean Temperature 58 °F -  
Max Temperature 73 °F 65 °F 80 °F (1997)
Min Temperature 44 °F 44 °F 33 °F (2006)
Degree Days  
Heating Degree Days 6    
Growing Degree Days 8 (Base 50)    
Moisture  
Dew Point 49 °F    
Average Humidity 71    
Maximum Humidity 90    
Minimum Humidity 42    
Precipitation  
Precipitation 0.00 in - - ()
Sea Level Pressure  
Sea Level Pressure 30.13 in    
Wind  
Wind Speed 9 mph (SW)    
Max Wind Speed 22 mph    
Max Gust Speed 31 mph    
Visibility 10 miles    
Events      
Averages and records for this station are not official NWS values.
T = Trace of Precipitation, MM = Missing Value Source: NWS Daily Summary

Daily Weather History Graph

Daily Weather History Graph

Search for Another Location

Airport or City:

Trip Planner

Search our weather history database for the weather conditions in past years. The results will help you decide how hot, cold, wet, or windy it might be!

Date:

Astronomy

Oct. 14, 2012 Rise Set
Actual Time 7:08 AM EDT 6:19 PM EDT
Civil Twilight 6:40 AM EDT 6:46 PM EDT
Nautical Twilight 6:09 AM EDT 7:18 PM EDT
Astronomical Twilight 5:38 AM EDT 7:49 PM EDT
Moon 6:04 AM EDT (10/14) 5:37 PM EDT (10/14)
Length of Visible Light 12h 05m
Length of Day
11h 11m
Waning Crescent, 1% of the Moon is Illuminated
Oct 14
Waning Crescent
Oct 15
New
Oct 21
First Quarter
Oct 29
Full
Nov 6
Last Quarter

Hourly Weather History & Observations

Time (EDT) Temp. Windchill Dew Point Humidity Pressure Visibility Wind Dir Wind Speed Gust Speed Precip Events Conditions
12:55 AM 44.6 °F 43.1 °F 40.8 °F 87% 30.30 in 10.0 mi SSW 3.5 mph - N/A   Mostly Cloudy
1:55 AM 46.9 °F - 42.4 °F 84% 30.27 in 10.0 mi SSW 5.8 mph - N/A   Mostly Cloudy
2:55 AM 46.9 °F - 43.0 °F 86% 30.26 in 10.0 mi SSW 3.5 mph - N/A   Overcast
3:55 AM 48.4 °F - 44.4 °F 86% 30.23 in 10.0 mi SSW 6.9 mph - N/A   Overcast
4:55 AM 51.1 °F - 46.4 °F 84% 30.22 in 10.0 mi SSW 4.6 mph - N/A   Overcast
5:55 AM 48.7 °F - 45.7 °F 89% 30.22 in 10.0 mi SW 4.6 mph - N/A   Clear
6:55 AM 49.1 °F - 46.4 °F 90% 30.22 in 10.0 mi SSW 6.9 mph - N/A   Partly Cloudy
7:55 AM 52.2 °F - 48.4 °F 87% 30.22 in 10.0 mi SSW 6.9 mph - N/A   Clear
8:55 AM 56.8 °F - 50.2 °F 78% 30.22 in 10.0 mi SW 12.7 mph - N/A   Clear
9:55 AM 60.4 °F - 50.4 °F 69% 30.21 in 10.0 mi SW 12.7 mph 24.2 mph N/A   Clear
10:55 AM 64.2 °F - 50.2 °F 60% 30.19 in 10.0 mi WSW 13.8 mph 21.9 mph N/A   Mostly Cloudy
11:55 AM 68.9 °F - 49.6 °F 50% 30.17 in 10.0 mi WSW 20.7 mph 29.9 mph N/A   Partly Cloudy
12:55 PM 70.9 °F - 48.7 °F 45% 30.14 in 10.0 mi WSW 21.9 mph 31.1 mph N/A   Clear
1:55 PM 72.1 °F - 48.9 °F 44% 30.10 in 10.0 mi West 20.7 mph 27.6 mph N/A   Clear
2:55 PM 73.8 °F - 49.3 °F 42% 30.07 in 10.0 mi SW 20.7 mph - N/A   Clear
3:55 PM 72.3 °F - 47.8 °F 42% 30.05 in 10.0 mi SW 16.1 mph - N/A   Clear
4:55 PM 72.1 °F - 48.0 °F 42% 30.03 in 10.0 mi SW 13.8 mph 20.7 mph N/A   Clear
5:55 PM 68.5 °F - 51.3 °F 54% 30.03 in 10.0 mi SW 9.2 mph - N/A   Clear
6:55 PM 65.1 °F - 52.3 °F 63% 30.02 in 10.0 mi SSW 6.9 mph - N/A   Clear
7:55 PM 62.8 °F - 55.6 °F 77% 30.02 in 10.0 mi SSW 9.2 mph - N/A   Clear
8:55 PM 61.5 °F - 56.3 °F 83% 30.01 in 10.0 mi South 8.1 mph - N/A   Clear
9:55 PM 61.0 °F - 56.5 °F 85% 30.00 in 10.0 mi South 9.2 mph - N/A   Clear
10:55 PM 61.0 °F - 56.1 °F 84% 29.98 in 10.0 mi South 9.2 mph - N/A   Clear
11:55 PM 61.7 °F - 56.5 °F 83% 29.94 in 10.0 mi SSW 13.8 mph - N/A   Clear